Hourly Weather Nevinnomyssk

Today, 11 August, Tuesday

Time Temperature Precipitation Wind Pressure Humidity
00:00 +18°C° 0.1 mm 2 mps 704 mmHg 77%
01:00 +19°C° 0.1 mm 1 mps 704 mmHg 79%
02:00 +18°C° 0.1 mm 1 mps 704 mmHg 80%
03:00 +18°C° 0.1 mm 1 mps 703 mmHg 82%
04:00 +18°C° 0.1 mm 1 mps 704 mmHg 82%
05:00 +18°C° 0.1 mm 1 mps 704 mmHg 82%
06:00 +19°C° 0.1 mm 1 mps 704 mmHg 82%
07:00 +20°C° 0 mm 1 mps 704 mmHg 75%
08:00 +22°C° 0 mm 1 mps 705 mmHg 68%
09:00 +24°C° 0 mm 1 mps 705 mmHg 61%
10:00 +25°C° 0.1 mm 2 mps 705 mmHg 56%
11:00 +27°C° 0.1 mm 2 mps 705 mmHg 51%
12:00 +28°C° 0.1 mm 3 mps 705 mmHg 46%
13:00 +28°C° 0.5 mm 3 mps 705 mmHg 46%
14:00 +28°C° 0.5 mm 3 mps 705 mmHg 46%
15:00 +28°C° 0.5 mm 4 mps 705 mmHg 46%
16:00 +27°C° 0.1 mm 3 mps 705 mmHg 48%
17:00 +26°C° 0.1 mm 3 mps 705 mmHg 51%
18:00 +26°C° 0.1 mm 3 mps 705 mmHg 53%
19:00 +24°C° 0.5 mm 3 mps 705 mmHg 60%
20:00 +21°C° 0.5 mm 2 mps 705 mmHg 66%
21:00 +19°C° 0.5 mm 2 mps 705 mmHg 73%
22:00 +19°C° 0 mm 1 mps 705 mmHg 76%
23:00 +18°C° 0 mm 1 mps 705 mmHg 79%

Tomorrow, 12 August, Wednesday

Time Temperature Precipitation Wind Pressure Humidity
00:00 +18°C° 0 mm 1 mps 705 mmHg 82%
01:00 +18°C° 0 mm 1 mps 705 mmHg 83%
02:00 +16°C° 0 mm 2 mps 704 mmHg 85%
03:00 +16°C° 0 mm 2 mps 704 mmHg 86%
04:00 +16°C° 0 mm 2 mps 704 mmHg 86%
05:00 +16°C° 0 mm 2 mps 705 mmHg 85%
06:00 +16°C° 0 mm 2 mps 705 mmHg 84%
07:00 +19°C° 0 mm 2 mps 705 mmHg 73%
08:00 +23°C° 0 mm 2 mps 705 mmHg 62%
09:00 +25°C° 0 mm 2 mps 706 mmHg 51%
10:00 +27°C° 0 mm 2 mps 706 mmHg 44%
11:00 +28°C° 0 mm 2 mps 706 mmHg 38%
12:00 +30°C° 0 mm 3 mps 706 mmHg 31%
13:00 +30°C° 0 mm 3 mps 706 mmHg 31%
14:00 +30°C° 0 mm 3 mps 706 mmHg 30%
15:00 +30°C° 0 mm 3 mps 706 mmHg 29%
16:00 +29°C° 0 mm 2 mps 706 mmHg 32%
17:00 +29°C° 0 mm 2 mps 706 mmHg 35%
18:00 +28°C° 0 mm 2 mps 706 mmHg 38%
19:00 +26°C° 0 mm 1 mps 706 mmHg 40%
20:00 +25°C° 0 mm 1 mps 706 mmHg 42%
21:00 +24°C° 0 mm 1 mps 706 mmHg 44%
22:00 +23°C° 0 mm 1 mps 706 mmHg 47%
23:00 +22°C° 0 mm 1 mps 706 mmHg 50%

Day after tomorrow, 13 August, Thursday

Time Temperature Precipitation Wind Pressure Humidity
00:00 +20°C° 0 mm 2 mps 706 mmHg 54%
01:00 +20°C° 0 mm 2 mps 705 mmHg 58%
02:00 +19°C° 0 mm 2 mps 705 mmHg 62%
03:00 +18°C° 0 mm 2 mps 705 mmHg 67%
04:00 +18°C° 0 mm 2 mps 705 mmHg 69%
05:00 +17°C° 0 mm 2 mps 705 mmHg 71%
06:00 +17°C° 0 mm 2 mps 705 mmHg 73%
07:00 +19°C° 0 mm 2 mps 705 mmHg 66%
08:00 +21°C° 0 mm 2 mps 706 mmHg 58%
09:00 +25°C° 0 mm 2 mps 706 mmHg 51%
10:00 +26°C° 0.1 mm 3 mps 706 mmHg 48%
11:00 +27°C° 0.1 mm 3 mps 706 mmHg 45%
12:00 +28°C° 0.1 mm 4 mps 706 mmHg 43%
13:00 +28°C° 0.2 mm 4 mps 706 mmHg 44%
14:00 +27°C° 0.2 mm 4 mps 706 mmHg 46%
15:00 +27°C° 0.2 mm 4 mps 705 mmHg 48%
16:00 +25°C° 0.5 mm 3 mps 705 mmHg 57%
17:00 +24°C° 0.5 mm 2 mps 705 mmHg 66%
18:00 +22°C° 0.5 mm 1 mps 705 mmHg 75%
19:00 +20°C° 0.8 mm 2 mps 705 mmHg 78%
20:00 +19°C° 0.8 mm 2 mps 705 mmHg 81%
21:00 +18°C° 0.8 mm 2 mps 705 mmHg 83%
22:00 +18°C° 0.1 mm 1 mps 705 mmHg 84%
23:00 +18°C° 0.1 mm 1 mps 705 mmHg 85%

14 August, Friday

Time Temperature Precipitation Wind Pressure Humidity
00:00 +18°C° 0.1 mm 1 mps 705 mmHg 85%
01:00 +16°C° 0 mm 1 mps 705 mmHg 86%
02:00 +16°C° 0 mm 1 mps 705 mmHg 87%
03:00 +15°C° 0 mm 1 mps 705 mmHg 88%
04:00 +15°C° 0 mm 1 mps 705 mmHg 87%
05:00 +15°C° 0 mm 1 mps 705 mmHg 87%
06:00 +15°C° 0 mm 1 mps 705 mmHg 87%
07:00 +18°C° 0 mm 1 mps 705 mmHg 78%
08:00 +19°C° 0 mm 1 mps 705 mmHg 70%
09:00 +20°C° 0 mm 2 mps 705 mmHg 62%
10:00 +21°C° 0 mm 2 mps 705 mmHg 56%
11:00 +24°C° 0 mm 3 mps 706 mmHg 49%
12:00 +25°C° 0 mm 3 mps 706 mmHg 43%
13:00 +25°C° 0.1 mm 3 mps 706 mmHg 42%
14:00 +25°C° 0.1 mm 3 mps 705 mmHg 41%
15:00 +25°C° 0.1 mm 3 mps 705 mmHg 40%
16:00 +25°C° 0 mm 2 mps 705 mmHg 42%
17:00 +24°C° 0 mm 2 mps 705 mmHg 44%
18:00 +23°C° 0 mm 1 mps 705 mmHg 47%
19:00 +22°C° 0 mm 1 mps 705 mmHg 49%
20:00 +20°C° 0 mm 2 mps 706 mmHg 52%
21:00 +18°C° 0 mm 2 mps 706 mmHg 55%
22:00 +17°C° 0 mm 2 mps 706 mmHg 59%
23:00 +16°C° 0 mm 1 mps 706 mmHg 63%

15 August, Saturday

Time Temperature Precipitation Wind Pressure Humidity
00:00 +14°C° 0 mm 1 mps 706 mmHg 67%
01:00 +14°C° 0 mm 1 mps 705 mmHg 69%
02:00 +13°C° 0 mm 1 mps 705 mmHg 72%
03:00 +12°C° 0 mm 1 mps 705 mmHg 74%
04:00 +12°C° 0 mm 1 mps 705 mmHg 74%
05:00 +13°C° 0 mm 1 mps 705 mmHg 75%
06:00 +13°C° 0 mm 1 mps 705 mmHg 75%
07:00 +15°C° 0 mm 1 mps 706 mmHg 67%
08:00 +19°C° 0 mm 1 mps 706 mmHg 59%
09:00 +21°C° 0 mm 1 mps 706 mmHg 52%
10:00 +23°C° 0 mm 2 mps 706 mmHg 48%
11:00 +24°C° 0 mm 2 mps 706 mmHg 43%
12:00 +25°C° 0 mm 3 mps 706 mmHg 39%
13:00 +25°C° 0 mm 3 mps 706 mmHg 39%
14:00 +25°C° 0 mm 3 mps 706 mmHg 38%
15:00 +25°C° 0 mm 3 mps 706 mmHg 38%
16:00 +24°C° 0 mm 2 mps 706 mmHg 40%
17:00 +24°C° 0 mm 2 mps 706 mmHg 42%
18:00 +23°C° 0 mm 2 mps 706 mmHg 44%
19:00 +20°C° 0 mm 2 mps 706 mmHg 48%
20:00 +19°C° 0 mm 2 mps 706 mmHg 51%
21:00 +18°C° 0 mm 2 mps 706 mmHg 55%
22:00 +17°C° 0 mm 2 mps 706 mmHg 56%
23:00 +16°C° 0 mm 2 mps 705 mmHg 58%

16 August, Sunday

Time Temperature Precipitation Wind Pressure Humidity
00:00 +15°C° 0 mm 2 mps 705 mmHg 60%
01:00 +14°C° 0 mm 2 mps 705 mmHg 62%
02:00 +14°C° 0 mm 2 mps 705 mmHg 65%
03:00 +13°C° 0 mm 2 mps 705 mmHg 67%
04:00 +13°C° 0 mm 2 mps 705 mmHg 69%
05:00 +13°C° 0 mm 1 mps 705 mmHg 70%
06:00 +12°C° 0 mm 1 mps 705 mmHg 72%
07:00 +15°C° 0 mm 2 mps 705 mmHg 65%
08:00 +18°C° 0 mm 3 mps 705 mmHg 57%
09:00 +20°C° 0 mm 4 mps 705 mmHg 49%
10:00 +22°C° 0 mm 4 mps 705 mmHg 46%
11:00 +23°C° 0 mm 5 mps 705 mmHg 43%
12:00 +26°C° 0 mm 5 mps 705 mmHg 40%
13:00 +26°C° 0 mm 5 mps 705 mmHg 40%
14:00 +26°C° 0 mm 5 mps 704 mmHg 40%
15:00 +26°C° 0 mm 6 mps 704 mmHg 40%
16:00 +26°C° 0 mm 5 mps 704 mmHg 43%
17:00 +25°C° 0 mm 5 mps 704 mmHg 46%
18:00 +23°C° 0 mm 5 mps 704 mmHg 49%
19:00 +21°C° 0 mm 4 mps 703 mmHg 56%
20:00 +20°C° 0 mm 4 mps 703 mmHg 62%
21:00 +18°C° 0 mm 3 mps 703 mmHg 69%
22:00 +17°C° 0 mm 3 mps 703 mmHg 70%
23:00 +17°C° 0 mm 2 mps 703 mmHg 72%
Show more